{"data":{"norad_id":39163,"intl_designator":"2013-022A","name":"EUTELSAT 7B","alt_names":[],"object_type":"PAYLOAD","status":"ACTIVE","operator":null,"country":"EUTE","launch_date":"2013-05-14","launch_site_code":"TYMSC","launch_vehicle":null,"mission":null,"orbit_class":"UNKNOWN","rcs_meters":64.9296,"size_class":null,"mass_kg":null,"dimensions":null,"purposes":["comms"],"wikipedia_slug":null,"has_3d_model":false,"image_url":null,"decayed_at":null,"tle_current":{"epoch":"2026-09-20T03:18:42.667776Z","epoch_age_seconds":53276,"freshness":"FRESH","line1":"1 39163U 13022A   26263.13799384  .00000100  00000+0  00000+0 0  9992","line2":"2 39163   0.0661 354.2108 0004711 111.2322 319.2970  1.00274117 48898","mean_motion":1.00274117,"eccentricity":0.0004711,"inclination_deg":0.0661,"raan_deg":354.2108,"arg_perigee_deg":111.2322,"mean_anomaly_deg":319.297,"bstar":0,"rev_number":4889,"period_min":1436.0635057998,"perigee_km":35766.077732352,"apogee_km":35805.80472686,"semimajor_km":42164.078229606,"source":"CELESTRAK","updated_at":"2026-09-20T09:00:35.203918Z"}}}